www.pogodaiklimat.ru

Погода и климат >> Архив погоды >> Россия >> Чукотка >> Валькаркай


ПОГОДА в Валькаркае

  • Прогноз погоды в Валькаркае
  • Монитор погоды в Валькаркае

АРХИВ ПОГОДЫ в Валькаркае

Время (UTC), дата Ветер
(напр.,м/с)
 
Видим.   Явления Облачность Т
(С)
Тd
(С)
f
(%)
Тe
(С)
Тes
(С)
Комфортность P
(гПа)
Po
(гПа)
Тmin
(С)
Tmax
(С)
R
(мм)
R24
(мм)
S
(см)
06 13.05 В 8-10
{11}
20 км позёмок 9/9 200 м
[St]
-7.4 -8.7 90 -17 -17 1009.7 1009.2
09 13.05 В 7
{10}
20 км позёмок 10/10 360 м
[St]
-7.8 -9.2 90 -17 -17 1011.5 1011.0 -6.9
12 13.05 В 6
{9}
20 км {метель} 10/10 300 м
[St]
-8.0 -9.4 90 -16 -16 1012.6 1012.1
15 13.05 СВ 6
{8}
20 км 10/10 400 м
[St]
-8.6 -10.5 86 -17 -17 1014.2 1013.7
18 13.05 В 3
{8}
20 км снежные кристаллы 10/10 200 м
[St]
-8.1 -10.8 81 -14 -14 1015.2 1014.7
21 13.05 СЗ 2
{3}
20 км {снег} 10/10 200 м
[St]
-7.9 -9.7 87 -12 -12 1016.6 1016.1 -8.7 0.0 23
00 14.05 СВ 5
{7}
10 км слаб. снег 10/10 200 м
[St]
-8.1 -10.4 83 -16 -16 1017.8 1017.3
03 14.05 С 4
{6}
20 км снежные кристаллы 10/10 200 м
[St]
-8.2 -10.9 81 -15 -15 1019.0 1018.5
06 14.05 СЗ 3
{5}
20 км снежные кристаллы 9/9 300 м
[St]
-8.3 -11.1 80 -14 -14 1019.9 1019.4
09 14.05 СЗ 3
{5}
20 км снежные кристаллы 10/10 300 м
[St]
-8.9 -11.3 83 -15 -15 1020.8 1020.3 -7.7 0.0
12 14.05 З 2
{5}
20 км снежные кристаллы 10/10 500 м
[Sc]
-9.6 -11.7 85 -14 -14 1021.7 1021.1
15 14.05 З 2
{4}
20 км снежные кристаллы 10/10 570 м
[Sc]
-9.4 -11.5 85 -14 -14 1022.2 1021.7
18 14.05 З 4
{6}
10 км слаб. снег 10/10 600 м
[Sc]
-9.4 -11.0 88 -16 -16 1023.2 1022.6
21 14.05 З 5
{6}
10 км слаб. снег 10/10 570 м
[Sc]
-9.0 -11.0 85 -17 -17 1024.1 1023.6 -9.7 0.0 22
00 15.05 СЗ 4
{6}
10 км слаб. снег 10/10 500 м
[Sc]
-8.3 -10.6 83 -15 -15 1024.6 1024.1
03 15.05 СЗ 2
{5}
10 км слаб. снег 10/10 540 м
[Sc]
-7.9 -10.6 81 -12 -12 1025.1 1024.5
06 15.05 СЗ 1
{3}
20 км в посл. час снег 10/10 700 м
[Sc]
-7.9 -10.6 81 -10 -10 1025.2 1024.7
09 15.05 штиль 0
{2}
20 км 10/10 660 м
[Sc]
-7.8 -10.5 81 -8 -8 1025.3 1024.8 -7.7 0.0
12 15.05 З 1
{4}
20 км 8/8 630 м
[Sc]
-13.0 -15.0 85 -15 -15 1025.1 1024.6
15 15.05 В 1
{3}
20 км 9/9 600 м
[Sc]
-11.7 -13.0 90 -14 -14 1024.8 1024.3
18 15.05 штиль 0
{1}
20 км 10/10 570 м
[Sc]
-9.6 -11.7 85 -10 -10 1024.3 1023.8
21 15.05 В 3
{3}
20 км 8/4 600 м
[Sc Ci fib]
-8.5 -10.8 83 -14 -12 1023.6 1023.1 -13.5 22
00 16.05 В 6
{8}
20 км 8/1 200 м
[St Ci fib]
-7.1 -10.0 80 -15 -12 1022.7 1022.2
03 16.05 В 6
{8}
20 км 8/1 200 м
[St Ci fib]
-6.4 -8.7 84 -14 -12 1022.1 1021.5
06 16.05 В 7
{9}
20 км 4/1 200 м
[St Ci fib]
-6.7 -8.7 86 -15 -15 1021.1 1020.6
09 16.05 В 5
{9}
20 км 3/1 200 м
[St Ci fib]
-9.0 -10.1 92 -17 -17 1020.6 1020.1 -6.4
12 16.05 В 2
{6}
20 км 1/1 200 м
[St]
-12.2 -12.8 95 -17 -17 1019.7 1019.2
15 16.05 ЮЗ 1
{4}
20 км 3/3 200 м
[St]
-15.5 -16.8 90 -18 -18 1018.8 1018.3
18 16.05 В 2
{6}
20 км 6/6 200 м
[St]
-10.4 -10.9 96 -15 -14 1017.5 1017.0
21 16.05 В 3
{4}
20 км 4/1 200 м
[St Ci fib]
-8.8 -10.3 89 -15 -11 1016.1 1015.6 -16.7 22
00 17.05 В 5
{7}
20 км 6/3 200 м
[St Ci sp]
-6.8 -8.0 91 -14 -11 1014.8 1014.3
03 17.05 В 3
{6}
20 км 3/1 200 м
[St Ci fib]
-5.4 -7.5 85 -11 -5 1013.9 1013.4
06 17.05 штиль 0
{4}
20 км 6/1 200 м
[St Ci]
-3.8 -6.4 82 -5 -1 1013.0 1012.5
09 17.05 ЮЗ 1
{2}
20 км 8/1 200 м
[St Ac trans Ci fib]
-6.8 -7.6 94 -9 -9 1013.0 1012.5 -2.5
12 17.05 штиль 0
{2}
20 км 9/3 200 м
[St Ac trans]
-6.2 -7.0 94 -7 -7 1012.8 1012.2
15 17.05 В 3
{5}
20 км 9/6 200 м
[St Ac trans]
-6.2 -7.0 94 -12 -12 1013.0 1012.5
18 17.05 В 3
{4}
10 км слаб. снег 10/8 200 м
[Frnb As op]
-6.3 -7.1 94 -12 -12 1013.5 1013.0
21 17.05 В 1
{4}
3000 м снег 10/8 200 м
[Frnb As op]
-5.7 -6.8 92 -8 -8 1014.3 1013.8 -6.8 1 23
00 18.05 штиль 0
{2}
9000 м слаб. снег 10/10 660 м
[Sc]
-2.9 -5.7 81 -4 -4 1015.1 1014.5
03 18.05 СЗ 2
{3}
20 км {снег} 10/10 270 м
[St]
-3.3 -5.4 85 -7 -7 1015.7 1015.2
06 18.05 СЗ 4
{5}
20 км {снег} 10/10 360 м
[St]
-4.6 -6.0 90 -11 -11 1016.5 1016.0
09 18.05 З 5
{7}
20 км 10/10 270 м
[St]
-4.9 -6.0 92 -12 -12 1017.1 1016.6 -1.2 0.2
12 18.05 СЗ 6
{8}
20 км 10/10 150 м
[St]
-6.7 -7.5 94 -15 -15 1017.9 1017.4
15 18.05 СЗ 5
{8}
20 км 10/10 180 м
[St]
-8.8 -9.5 95 -17 -17 1018.8 1018.3
18 18.05 З 5
{7}
20 км 10/10 180 м
[St]
-8.5 -9.2 95 -16 -16 1019.3 1018.8
21 18.05 З 4
{8}
20 км 10/10 300 м
[St]
-8.8 -10.3 89 -16 -16 1019.9 1019.4 -9.1 24
00 19.05 З 5
{7}
10 км слаб. снег 10/10 200 м
[St]
-7.7 -10.8 78 -15 -15 1019.9 1019.4
03 19.05 З 5
{7}
20 км {снег} 8/4 200 м
[St Ac trans Ci fib]
-8.7 -11.6 79 -16 -15 1020.2 1019.7
06 19.05 З 7
{8}
20 км {снег} 4/3 200 м
[St Ci fib]
-10.6 -12.6 85 -20 -19 1019.8 1019.2
09 19.05 штиль 0
{8}
20 км 4/3 200 м
[St Ci fib]
-12.7 -14.7 85 -13 -12 1019.7 1019.2 -7.4 0.2
12 19.05 ЮЗ 2
{2}
20 км 4/4 200 м
[St]
-15.8 -17.1 90 -21 -21 1019.4 1018.9
15 19.05 В 1
{2}
20 км 9/9 300 м
[St]
-12.1 -13.4 90 -14 -14 1019.3 1018.7
18 19.05 В 4
{7}
20 км 10/10 330 м
[St]
-10.3 -11.6 90 -17 -17 1018.2 1017.6
21 19.05 В 6-10
{10}
20 км 6/6 300 м
[St]
-7.4 -9.1 88 -16 -15 1016.7 1016.1 -16.1 24
00 20.05 В 10-12
{13}
20 км позёмок 4/3 300 м
[St Ci fib]
-6.7 -8.3 88 -17 -16 1016.1 1015.6
03 20.05 В 9-10
{12}
20 км позёмок 6/3 300 м
[St Ci fib]
-5.0 -6.7 88 -14 -14 1016.0 1015.5

 

Местоположение метеостанции Валькаркай (Чукотка, Россия): широта 70.08 долгота 170.90 высота над уровнем моря 6 м.

В архиве по умолчанию представлена погода в Валькаркае за последнюю неделю. Архивные данные за месяц целиком и за предыдущие месяцы, начиная с января 2011 года, Вы можете получить, выбрав интересующий диапазон дат из раскрывающегося списка и нажав кнопку "Ввод!".


*Определитесь, кто Вы:
робот инопланетянин человек

Внимание! Время в таблицах - всемирное. Для получения местного времени необходимо прибавить поправку, которая равна 12 ч.

Смотрите также архив погоды в соседних городах и на ближайших метеорологических станциях:

Погода в Певеке (Чукотка, Россия) (50 км)
Погода на 21 км (Чукотка, Россия) (50 км)
Погода на Айон Острове (Чукотка, Россия) (115 км)
Погода в Комсомольской (Чукотка, Россия) (129 км)
Погода в Чауне (Чукотка, Россия) (134 км)
Погода в Паляваам-Глубокой (Чукотка, Россия) (163 км)
Погода в Раучуе (Чукотка, Россия) (181 км)
Погода на Мысе Биллингс (Чукотка, Россия) (184 км)
Погода в Майской (Чукотка, Россия) (196 км)
Погода в Билибино (Чукотка, Россия) (288 км)

Пояснения к столбцам:

Ветер - указаны скорость ветра в м/с - средняя за 10 мин, порывы в срок и между сроками (в фигурных скобках) и направление, откуда дует ветер: С - северный, СВ - северо-восточный, В - восточный, ЮВ - юго-восточный, Ю - южный, ЮЗ - юго-западный, З - западный, СЗ - северо-западный.
Видимость - горизонтальная дальность видимости в метрах или километрах. При видимости от 1 до 10 км при отсутствии осадков обычно наблюдается дымка, при ухудшении видимости до 1 км и менее - туман. В сухую погоду видимость может ухудшаться дымом, пылью или мглою.
Явления - указаны атмосферные явления, наблюдавшиеся в срок или в последний час перед сроком; фигурными скобками обозначены явления, наблюдавшиеся между сроками (за 1-3 часа до срока); квадратными скобками обозначены град или гололедные отложения с указанием их диаметра в мм.
Облачность - указаны через наклонную черту общая и нижняя облачность в баллах и высота нижней границы облаков в метрах; квадратными скобками обозначены формы облаков: Ci - перистые, Cs - перисто-слоистые, Cc - перисто-кучевые, Ac - высококучевые, As - высокослоистые, Sc - слоисто-кучевые, Ns - слоисто-дождевые, Cu - кучевые, Cb - кучево-дождевые. Подробнее классификацию облаков см. в Атласе облаков (PDF).
T - Температура воздуха - температура, измеренная на высоте 2 м над землей.
Td - Температура точки росы - температура, при понижении до которой содержащийся в воздухе водяной пар достигнет насыщения.
f - Относительная влажность воздуха - влажноcть воздуха, измеренная на высоте 2 м над землей.
Te - Эффективная температура - температура, которую ощущает одетый по сезону человек в тени. Характеристика душности погоды. При расчете учитывается влияние влажности воздуха и скорости ветра на теплоощущения человека.
Tes - Эффективная температура на солнце - температура, которую ощущает человек, с поправкой на солнечный нагрев. Характеристика знойности погоды. Зависит от высоты солнца над горизонтом, облачности и скорости ветра. Ночью, в пасмурную погоду, а также при ветре 12 м/с и более поправка равна нулю.
P - Атмосферное давление - приведенное к уровню моря атмосферное давление.
Po - Атмосферное давление - измеренное на уровне метеостанции атмосферное давление.
Tmin - Минимальная температура - минимум температуры воздуха на высоте 2 м над землей.
Tmax - Максимальная температура - максимум температуры воздуха на высоте 2 м над землей.
R - Количество осадков - Количество выпавших осадков за период времени, мм. При наведении курсора мыши на число - период времени, за который выпало указанное количество осадков.
R24 - Количество осадков - Количество выпавших осадков за 24 часа, мм.
S - Снежный покров - Высота снежного покрова, см. При наведении курсора мыши на число - состояние снежного покрова и степень покрытия местности в баллах.